Starlink 31246

operational
NORAD ID: 58835 Int'l Des: 2024-017 Owner: SPXS Country: US Constellation: starlink
LEOCIRCULAR

关于 Starlink 31246

正在加载描述...

实时位置

正在加载3D地球...

即将过境

高度历史

Altitude vs Time

uPlot chart will show altitude changes over time

两行轨道根数

1 58835U 24017K 25351.04156948 -.00001194 00000-0 -28156-4 0 9999
2 58835 53.1586 228.1238 0001558 73.8796 286.2376 15.30213655107401
Epoch: Dec 17, 2025 • Age: 16 hours

当前状态

高度 480.7 km
速度 7.63 km/s
星下点 53.30°N, 29.04°W
发射日期 Jan 24, 2024
运行时间 1.8 years
类型 internet

技术详情

分类 Payload
质量 730.00 kg
干质量 700.00 kg
总质量 730.00 kg
长度 0.30 m
直径 4.10 m
跨度 29.00 m
形状 Box + pan
制造商 SPXS
平台类型 Starlink V2M
阶段状态 In Orbit
所有者/国家 SPXS/US

大型星座

Loading constellations...